Theta_e
316 322 325 323 328 325 327 326 330 331 333 335 335 336 339 342 340 347 339 338 338 344 347 324 320 320 318 317 318 321 331 337 340 343 344 345 343 340 332 324 320 322 322 321 315 315 317 320 318
321 327 322 326 326 328 326 329 330 335 336 337 338 338 340 342 341 342 341 340 340 346 346 338 320 320 319 316 316 317 325 333 334 339 339 336 333 328 320 319 319 319 315 320 325 325 326 324 324
333 325 323 324 328 326 329 329 333 335 338 337 337 337 338 341 340 340 341 340 341 346 346 341 320 320 319 317 316 316 319 322 326 331 330 326 322 318 318 318 317 313 319 327 329 331 327 326 327
327 323 323 326 325 326 327 332 333 336 337 337 337 337 339 339 340 339 340 340 344 346 346 343 323 320 319 318 316 316 316 317 319 321 321 318 317 316 316 314 312 315 326 332 333 331 327 331 332
326 325 325 324 325 327 327 329 335 337 337 338 337 338 338 338 339 340 339 341 344 345 345 344 336 321 320 319 316 315 315 316 316 316 316 316 315 315 313 312 313 318 330 334 334 332 329 328 328
329 325 323 325 325 325 327 328 331 336 336 338 338 339 338 340 341 337 337 339 340 343 344 348 342 325 321 319 317 315 315 315 315 314 314 314 313 313 313 314 315 319 327 333 335 334 332 332 333
329 328 325 325 326 325 326 326 328 332 334 337 338 339 340 342 340 336 336 336 338 341 344 347 351 335 324 321 318 315 314 315 315 314 314 313 313 314 314 315 317 320 327 333 335 334 333 334 334
329 330 329 326 325 326 325 326 327 331 334 336 337 339 341 340 338 336 336 337 339 341 343 344 351 343 340 338 323 317 315 314 315 314 314 314 314 315 315 316 318 320 325 332 334 333 334 334 336
329 331 331 329 327 326 325 325 326 329 331 336 336 337 338 338 339 338 337 338 338 340 342 344 346 347 342 338 340 323 318 315 315 315 314 314 328 330 329 326 328 321 326 331 331 331 331 333 331
331 332 331 329 328 327 326 324 325 328 329 333 336 334 334 338 339 338 338 338 339 339 341 344 346 347 346 340 339 341 338 335 333 331 331 330 329 330 331 330 327 329 326 330 329 327 328 332 337
330 333 331 330 329 328 327 325 324 325 330 333 335 335 334 334 338 339 338 337 337 337 339 340 348 349 347 344 340 344 343 339 337 335 333 334 330 331 333 332 332 335 331 334 335 337 338 337 338
327 328 330 330 329 329 329 327 327 326 326 330 334 335 334 334 334 335 334 334 334 334 333 334 338 352 351 346 343 340 342 344 340 339 336 335 335 333 334 333 335 335 334 335 337 338 338 337 340
325 326 326 328 328 329 329 328 327 327 327 327 328 332 332 333 333 333 333 333 333 333 333 334 335 347 352 351 345 344 343 343 344 342 340 339 336 335 335 335 334 337 334 335 337 339 340 342 340
319 320 322 324 325 328 329 329 328 328 328 328 327 328 330 331 333 332 332 333 333 333 333 332 334 340 351 351 348 348 347 343 344 343 343 341 338 338 337 337 336 335 336 335 335 338 339 340 340
318 318 319 321 322 325 328 329 330 329 330 330 330 330 331 333 333 333 331 333 332 332 333 333 335 338 343 347 351 349 344 347 344 343 343 345 342 339 339 339 338 335 336 335 336 337 338 339 340
318 318 319 320 322 323 323 329 329 329 330 330 331 332 332 333 333 332 331 330 331 332 333 334 334 334 337 346 348 346 342 342 342 343 343 345 345 343 342 339 338 337 335 336 336 336 335 340 337
314 318 319 318 319 321 322 325 326 327 330 331 331 331 332 332 333 332 330 330 331 333 334 335 334 334 335 338 339 340 341 341 340 340 342 344 345 345 343 341 338 338 336 335 335 334 336 337 337
313 314 316 318 319 319 320 323 323 324 326 330 330 331 330 330 331 330 330 330 330 331 332 332 333 332 335 336 337 338 337 339 341 341 342 343 346 345 345 343 340 338 337 335 334 334 336 335 336
311 312 315 317 318 319 319 321 322 323 324 325 327 329 331 333 330 329 329 328 327 328 330 332 334 336 335 334 335 334 334 338 343 344 343 343 345 345 345 343 342 340 337 336 335 335 336 337 338
311 312 313 314 317 319 320 321 321 323 324 324 325 326 328 329 329 329 328 328 329 330 330 331 334 336 339 336 336 333 337 340 343 344 344 344 345 345 345 343 342 340 338 338 337 336 336 336 341
311 311 312 314 316 318 319 321 322 321 322 323 324 325 326 327 328 330 329 330 329 330 331 331 333 335 338 336 337 339 342 345 344 345 345 346 345 345 344 343 343 342 339 338 337 338 337 339 341
312 311 311 312 315 318 319 322 322 323 323 323 324 325 325 326 326 327 328 331 330 329 328 330 332 335 338 341 337 337 342 343 344 346 346 346 345 343 343 343 342 343 341 338 338 337 338 341 339
311 311 311 312 313 316 316 319 320 322 322 323 324 324 325 325 325 325 326 326 325 326 328 329 332 335 337 338 337 336 343 343 345 346 348 344 344 344 343 343 342 341 340 337 338 341 340 339 337
310 310 311 312 313 316 317 318 319 320 321 322 323 323 323 324 324 325 325 325 324 324 325 327 332 335 337 341 342 345 346 346 347 346 346 347 344 343 342 342 342 341 338 341 342 340 340 338 336
310 310 310 312 313 315 316 318 319 319 320 322 322 323 322 323 323 324 324 324 325 325 326 326 328 335 342 344 343 346 348 350 349 350 345 343 343 342 343 343 341 340 343 342 341 340 339 337 334
312 311 311 311 312 313 313 316 317 320 320 321 320 321 321 323 324 327 326 326 326 327 333 337 340 343 345 343 345 347 349 349 350 346 344 344 344 344 343 343 344 344 342 339 339 338 336 334 333
314 312 313 313 314 314 315 315 316 318 319 319 321 322 325 326 329 330 331 330 327 331 342 345 346 346 345 345 346 348 348 348 346 348 347 346 346 345 345 344 343 341 339 339 339 334 333 332 332
314 313 315 319 316 314 316 315 317 317 319 320 322 323 324 334 336 334 331 332 340 345 347 347 347 347 347 347 348 349 349 350 347 348 345 345 345 344 344 342 340 339 338 336 335 332 332 333 334
316 315 315 316 314 317 315 318 317 318 319 319 322 323 333 339 337 335 341 345 347 348 348 348 348 348 348 348 348 348 347 345 345 344 344 343 342 340 339 338 337 336 334 333 333 334 333 333 335
312 314 314 319 322 316 315 317 320 322 322 323 322 324 332 340 341 342 345 347 348 348 347 348 347 347 347 347 346 346 346 344 343 341 341 339 338 337 336 335 333 332 331 333 334 334 333 333 334
Wind_Speed
12 7 9 10 7 8 17 19 15 12 10 4 4 6 9 8 3 4 16 13 21 23 24 33 32 29 27 24 23 22 22 22 21 20 19 17 16 15 13 12 11 10 8 7 6 6 5 3 2
11 9 11 9 9 14 14 19 16 8 14 12 10 10 9 12 12 11 17 11 21 22 24 28 32 30 28 25 24 23 23 22 22 22 20 18 17 15 14 13 11 10 9 8 8 7 6 5 4
8 11 9 9 14 17 15 20 10 12 7 8 10 7 7 5 6 8 23 18 20 21 23 27 33 31 30 27 26 25 24 23 23 23 21 20 18 16 14 13 12 11 11 10 9 8 6 5 4
9 9 8 12 20 23 26 2 12 8 10 13 11 9 5 4 8 14 21 20 20 20 20 25 33 32 31 29 28 26 26 26 25 24 22 21 19 17 16 14 13 12 11 10 10 9 7 6 4
11 8 13 17 21 25 18 5 4 9 12 14 12 11 11 8 4 27 23 21 20 20 20 22 27 34 32 30 28 28 27 26 26 24 23 21 20 19 17 16 15 13 12 11 10 9 8 6 6
9 11 13 16 22 20 20 9 12 15 12 13 17 16 14 15 14 24 23 21 19 20 19 18 24 34 33 31 30 30 28 27 26 25 24 23 22 21 19 17 16 15 14 13 11 9 8 7 7
17 14 19 22 20 21 20 15 15 16 17 16 15 18 9 13 20 27 22 20 19 18 18 18 19 32 34 31 30 30 30 29 28 27 26 25 24 22 21 19 18 17 16 14 12 11 9 9 8
15 14 25 21 19 23 13 16 17 18 18 9 5 14 12 16 21 23 21 18 17 18 17 17 16 24 25 26 31 30 30 30 29 28 27 26 24 24 22 21 20 18 18 16 14 12 11 10 10
20 17 19 24 23 19 12 19 16 17 19 7 11 4 9 17 17 20 19 16 16 15 13 14 16 20 23 24 23 31 31 30 30 29 29 28 23 22 22 22 20 21 20 18 17 14 12 12 12
22 17 28 23 22 17 13 15 18 22 14 15 16 9 5 8 18 18 18 16 16 15 14 14 14 18 20 21 21 23 24 25 27 26 26 28 26 25 23 23 25 22 21 20 20 19 18 13 12
27 28 26 25 24 21 14 20 21 23 18 21 18 13 8 4 8 15 22 21 24 20 16 14 17 17 19 19 20 19 21 25 28 30 31 29 28 27 26 24 24 21 23 20 19 16 15 13 14
27 33 30 30 28 17 18 20 25 23 20 21 21 19 20 11 11 9 10 13 10 8 10 10 11 16 18 18 20 21 21 22 25 28 32 31 30 28 27 27 24 26 24 24 21 19 21 18 19
32 31 30 28 22 26 20 23 25 27 23 21 22 13 9 12 13 15 15 16 18 15 14 15 12 17 18 21 20 21 23 23 23 25 30 33 29 29 29 27 27 26 26 25 24 21 21 20 15
26 30 33 29 27 26 28 27 22 29 26 25 24 23 20 19 18 21 19 18 18 19 18 15 15 17 20 20 23 22 24 21 24 25 28 36 34 30 29 30 29 26 26 26 26 21 19 17 18
25 28 28 28 29 33 25 28 30 32 27 28 28 25 22 23 24 19 20 18 21 20 19 16 14 14 21 25 21 20 20 20 23 25 27 28 36 32 31 28 28 28 25 25 20 22 18 17 13
19 21 26 35 28 28 27 34 34 29 29 31 29 27 23 26 25 29 25 25 25 22 19 17 18 15 23 21 19 19 21 21 25 24 25 29 31 34 29 29 27 27 26 24 24 21 21 18 19
21 26 30 32 29 29 28 35 34 33 30 27 29 28 26 27 27 29 30 30 19 16 14 18 18 18 17 17 17 21 23 23 26 25 24 26 31 30 31 28 26 26 25 25 24 24 20 19 16
24 26 29 30 27 29 31 34 33 30 30 26 32 31 26 29 27 27 23 15 17 18 18 19 21 20 18 19 18 20 21 23 25 24 24 24 26 28 28 27 26 25 26 25 24 22 19 16 16
24 28 32 29 25 28 29 31 36 30 27 27 26 23 30 30 28 27 19 21 22 22 20 19 21 23 20 19 19 21 24 24 22 21 22 22 23 25 27 27 26 24 26 26 24 19 18 17 14
24 26 30 29 30 23 22 27 34 27 29 29 28 28 28 25 20 21 26 26 26 24 23 23 24 23 22 20 22 23 18 20 21 19 19 21 22 24 25 26 23 26 25 23 20 21 17 18 11
20 23 25 27 24 28 25 29 30 26 27 25 28 29 28 27 26 23 22 25 26 24 24 26 26 26 25 25 20 16 16 14 16 18 18 20 21 22 24 25 21 22 24 23 20 21 22 14 11
21 20 21 26 21 21 28 21 27 26 25 27 27 23 24 24 24 24 25 22 27 29 31 29 28 26 24 21 22 20 17 17 20 18 18 18 20 22 23 22 21 19 23 19 23 23 21 14 12
22 19 21 23 25 24 30 20 22 22 27 27 27 29 29 28 27 27 26 24 29 30 25 24 23 23 23 21 25 22 22 19 14 17 17 18 19 21 21 19 19 19 20 18 21 19 17 15 12
15 17 20 21 20 22 26 26 24 22 23 21 20 21 23 23 22 23 20 25 21 23 20 20 21 23 22 23 22 22 20 19 17 18 18 17 18 18 21 20 20 19 21 21 19 17 12 10 10
16 14 12 16 16 19 23 25 21 24 29 25 22 24 11 15 12 14 17 17 17 18 17 19 21 21 21 20 21 20 17 16 17 18 18 18 18 19 22 21 20 20 16 16 15 12 9 10 10
17 17 13 17 16 19 26 26 21 24 24 16 19 15 14 11 14 15 15 15 13 13 16 15 13 17 16 17 18 18 19 18 17 16 19 20 20 20 22 21 20 17 15 14 13 11 10 10 11
18 17 21 21 25 18 20 29 31 30 19 14 16 10 7 11 13 15 14 11 12 13 9 13 13 14 16 17 18 19 19 19 18 21 23 21 19 22 22 19 17 16 15 13 11 11 11 12 12
16 15 13 6 19 23 18 22 19 30 19 15 10 3 9 7 12 14 10 10 8 11 14 14 16 18 19 20 20 19 18 20 23 21 23 21 20 21 19 17 15 14 12 11 11 11 11 11 10
1 6 8 8 12 12 16 12 15 27 29 19 5 2 4 7 2 7 9 9 15 17 18 19 20 21 21 20 23 24 25 26 21 20 21 20 19 18 16 15 13 12 12 12 11 7 9 12 11
13 13 19 4 12 18 11 17 16 13 21 13 4 4 6 5 4 2 8 13 14 18 19 20 21 22 22 24 24 24 24 23 22 21 20 18 17 15 13 13 12 12 12 11 10 11 12 12 12
Wind_Direction
219 241 246 237 236 232 242 235 231 218 198 241 262 247 272 286 228 79 138 117 139 153 165 174 177 178 181 182 182 182 184 184 187 191 190 191 192 191 194 197 189 183 179 177 178 176 173 163 156
205 221 238 262 241 237 229 242 198 223 207 169 198 200 229 212 94 116 133 145 141 153 165 175 181 184 184 185 188 187 189 189 193 195 194 195 197 200 201 202 193 186 182 174 172 172 166 162 163
231 220 254 228 234 245 248 203 192 210 96 211 191 221 200 211 84 138 138 141 145 155 168 178 185 187 188 188 192 193 194 194 198 200 199 198 201 202 206 205 199 193 181 175 175 176 175 171 168
206 211 248 260 247 231 262 2 206 151 206 202 194 183 189 27 140 139 137 145 152 162 174 190 190 190 192 191 194 197 199 200 201 204 206 205 203 205 204 205 203 198 185 182 184 183 182 183 192
243 260 240 238 241 266 241 263 127 230 223 191 199 197 193 170 184 136 146 155 162 167 172 193 199 194 195 195 198 200 202 204 205 207 207 208 207 208 206 205 204 199 190 190 194 195 196 198 209
226 238 234 241 251 246 260 232 242 237 239 215 198 218 197 153 174 153 157 162 166 168 173 179 201 203 199 200 202 205 205 208 208 209 209 210 210 208 208 207 207 201 197 197 201 204 209 220 227
243 238 248 254 254 231 243 249 238 241 241 232 199 226 164 162 173 167 167 166 161 167 173 178 188 203 205 208 208 210 210 209 210 213 212 213 214 212 211 210 208 206 202 202 206 210 217 229 239
237 252 260 254 257 263 250 275 251 227 252 217 250 219 169 173 157 177 177 175 176 170 175 182 187 194 200 208 216 217 218 215 214 216 217 217 218 218 216 214 212 212 209 203 205 212 221 231 237
227 245 249 249 251 249 260 245 243 253 244 214 193 6 79 129 176 185 187 188 192 182 184 193 189 197 199 206 216 219 222 224 222 221 221 220 215 218 217 215 214 215 211 206 206 208 219 237 243
230 233 237 249 257 256 256 263 261 240 229 244 222 102 136 166 196 194 190 201 199 189 193 199 198 202 203 207 210 211 216 218 219 218 218 216 214 215 216 218 211 220 216 212 210 206 201 220 244
236 240 246 244 250 258 252 252 249 262 224 225 203 188 180 169 205 205 199 207 207 202 208 202 185 203 209 210 208 204 213 217 219 216 215 215 215 215 215 214 214 210 217 215 218 217 215 203 231
230 242 247 259 274 263 241 251 261 245 245 249 222 199 190 184 204 225 269 279 252 235 224 195 227 198 210 211 210 216 216 216 217 221 217 214 212 214 214 212 209 205 211 211 210 214 219 207 225
240 244 249 254 254 267 267 242 253 260 246 245 260 254 234 230 247 240 241 249 268 276 266 261 232 206 205 213 216 214 219 220 221 222 219 214 215 216 214 214 214 206 209 210 212 216 217 220 223
254 250 254 253 253 250 247 249 251 250 257 249 245 251 235 240 249 258 257 253 253 257 264 263 249 208 209 214 216 219 222 227 226 227 222 212 211 215 214 214 215 217 208 213 214 215 216 221 231
262 266 267 258 242 244 246 245 242 249 252 247 245 244 247 246 246 247 250 249 258 260 259 254 242 231 210 221 219 225 231 235 235 231 228 217 209 215 213 213 217 220 214 219 209 217 214 228 222
276 256 248 243 243 244 234 253 245 247 246 246 249 248 243 247 245 248 248 250 246 248 249 250 244 230 214 216 223 231 242 243 241 236 230 218 214 210 217 217 216 218 216 206 217 217 220 217 231
247 247 240 253 239 242 236 246 247 251 256 247 244 247 244 251 251 253 256 253 254 256 237 236 244 245 245 230 238 245 247 244 244 238 231 220 212 211 216 216 221 213 215 215 211 215 214 219 223
244 242 245 256 252 226 242 238 244 246 248 250 255 261 249 246 251 255 253 255 246 240 235 242 247 251 246 248 248 250 248 244 239 236 229 220 208 211 209 221 215 214 214 215 213 214 216 223 225
267 275 276 269 252 239 254 240 247 240 241 249 253 257 238 249 249 252 242 247 258 255 253 243 242 246 248 246 244 246 241 239 232 230 225 215 208 207 204 212 211 212 211 216 210 205 212 205 224
275 270 262 266 272 276 263 255 256 252 242 238 244 250 254 260 253 252 257 260 254 250 245 245 245 245 242 237 239 243 254 239 227 223 217 210 208 205 205 208 207 205 210 210 202 197 204 218 196
269 265 272 273 267 264 256 262 262 251 253 254 251 251 252 251 253 256 258 258 258 251 244 240 240 240 239 234 232 230 238 250 219 211 204 203 202 197 204 202 208 196 206 202 199 192 212 196 204
272 274 264 266 266 257 248 257 244 248 246 246 248 246 251 255 256 254 251 250 249 248 246 243 237 235 231 217 225 220 217 220 220 207 199 190 195 198 199 196 208 192 199 195 193 202 205 193 202
271 275 266 260 255 258 251 257 254 248 238 240 237 239 240 241 244 250 252 253 252 249 242 231 228 220 220 213 217 224 218 215 204 199 171 190 191 187 191 190 192 187 194 188 193 190 197 203 227
281 283 268 265 253 249 250 248 247 243 258 265 254 253 247 245 242 244 251 247 246 250 243 235 217 219 220 219 215 222 201 226 184 190 172 170 168 171 180 185 186 181 194 178 181 185 191 216 223
253 259 261 249 242 249 256 251 243 249 244 263 247 241 250 261 251 252 248 242 235 237 231 228 218 218 218 210 205 204 205 203 174 158 168 163 161 172 184 175 173 180 179 172 182 188 193 203 217
258 250 257 264 254 250 230 248 252 249 259 273 297 268 267 264 251 246 237 235 235 210 207 207 205 212 195 192 188 185 181 179 156 167 166 166 167 172 168 170 167 171 172 177 182 186 208 198 206
275 251 256 267 270 273 278 278 221 251 226 227 238 219 251 273 260 248 248 219 219 197 189 202 181 168 165 159 161 163 168 168 164 167 166 161 159 151 161 160 161 165 174 179 179 206 194 190 203
233 258 243 224 255 260 260 261 222 215 227 217 196 239 274 296 257 235 217 182 157 170 159 148 150 146 141 143 146 151 138 131 136 144 142 140 146 149 155 157 164 167 176 182 187 189 193 199 202
23 281 274 298 248 266 259 298 230 202 205 220 108 334 356 298 329 124 122 171 160 145 139 142 136 136 136 135 120 122 122 131 140 131 130 136 139 146 154 160 167 176 180 184 196 222 179 206 209
271 200 218 218 262 242 282 271 298 101 127 111 60 6 28 49 13 35 210 166 147 141 139 140 139 135 129 131 132 131 136 134 131 136 136 139 145 155 160 166 173 177 181 187 200 208 212 211 209